星链-32948 (STARLINK-32948)

导读

STARLINK-32948是美国于2025年2月27日发射的星链卫星,隶属于SpaceX公司的星链项目。星链项目旨在构建全球卫星互联网星座,为全球偏远地区、海洋等网络覆盖薄弱区域提供高速低延迟网络服务。该卫星入轨后,将进一步扩充星链星座规模,提升全球网络覆盖能力与服务稳定性,是Starlink星座部署进程中的一环。

基本信息
目录编号:
63123
目录名称:
STARLINK-32948
国际标识:
2025-039V
轨道中心:
EARTH
卫星名称:
星链-32948
卫星全名:
星链-32948 (STARLINK-32948)
卫星状态:
在轨 (已飞行472 天)
发射日期:
2025-02-27 UTC
国别 :
美国 (US)
星等 :
--
轨道信息
数据来源 国际轨道数据
星历时间: 2026-06-14T02:50:33+0800
13小时前
查看轨道信息
半长轴: 6861.14km
偏心率: 0.000317
轨道倾角: 42.998°
近地点辐角 266.456°
升交点赤经 190.062°
平近点角 93.593°
近地点: 480.828km
远地点: 485.178km
周期: 94.266分钟
每日圈数: 15.275957
详细信息
固有亮度:
5
最大亮度:
2.5
卫星平台:
Starlink V1.0
覆盖范围:
全球
运营商:
太空探索技术公司
运营商所在国:
美国
制造商(研发单位):
太空探索技术公司
制造商所在国:
美国
使用方式:
暂无
卫星简介
Starlink 计划是 SpaceX 推出的全球卫星互联网项目,通过发射低轨道卫星,为全球尤其是偏远地区提供高速、低延迟的互联网服务。自 2019 年起,Starlink 已部署数千颗卫星,旨在缩小全球数字鸿沟,推动互联网普及。该项目还为军事、航空等行业提供通信支持,带来广泛经济效益。
2D轨道图
3D轨道图
轨道高度分析图
轨道倾角分析图
轨道综合分析图
查看轨道综合分析图